Starlink 33808

operational
NORAD ID: 63767 Int'l Des: 2025-089 Owner: SPXS Country: US Constellation: starlink
LEOCIRCULAR

Über Starlink 33808

Beschreibung wird geladen...

Live-Position

3D-Globus wird geladen...

Nächste Überflüge

Höhenverlauf

Altitude vs Time

uPlot chart will show altitude changes over time

Zweizeiliger Elementsatz

1 63767U 25089S 26036.88638480 .00043179 00000-0 15691-2 0 9993
2 63767 43.0004 224.8388 0002123 268.1274 91.9335 15.27587415 44097
Epoch: 5. Feb. 2026 • Age: 15 hours

Aktueller Status

Höhe 494.6 km
Geschwindigkeit 7.62 km/s
Subsatellitenpunkt -42.65°S, 155.71°E
Startdatum 29. Apr. 2025
Alter 0.7 years
Typ internet

Technische Details

Klassifizierung Payload
Masse 575.00 kg
Trockenmasse 530.00 kg
Gesamtmasse 575.00 kg
Länge 0.30 m
Durchmesser 4.10 m
Spannweite 29.00 m
Form Box + pan
Hersteller SPXS
Bus-Typ Starlink V2MO
Phasenstatus In Orbit
Besitzer/Staat SPXS/US

Große Konstellationen

Loading constellations...